Change the Weather History Date:

Thursday, October 31, 2013

  Actual Average (KGSO) Record (KGSO)
Temperature  
Mean Temperature 62 °F 55 °F  
Max Temperature 69 °F 66 °F 85 °F (1961)
Min Temperature 54 °F 44 °F 27 °F (1917)
Degree Days  
Heating Degree Days 4 10  
Month to date heating degree days 202  
Since 1 July heating degree days 233  
Cooling Degree Days 0 0  
Month to date cooling degree days 33  
Year to date cooling degree days 1480  
Growing Degree Days 12 (Base 50)    
Moisture  
Dew Point 56 °F    
Average Humidity 80    
Maximum Humidity 98    
Minimum Humidity 61    
Precipitation  
Precipitation 0.00 in 0.11 in 1.26 in (1988)
Month to date precipitation 3.13  
Year to date precipitation 36.11  
Sea Level Pressure  
Sea Level Pressure 30.08 in    
Wind  
Wind Speed 2 mph (SSW)    
Max Wind Speed 9 mph    
Max Gust Speed 20 mph    
Visibility 9 miles    
Events Rain    
T = Trace of Precipitation, MM = Missing Value Source: NWS Daily Summary

Daily Weather History Graph

Daily Weather History Graph

Search for Another Location

Airport or City:

Trip Planner

Search our weather history database for the weather conditions in past years. The results will help you decide how hot, cold, wet, or windy it might be!

Date:

Astronomy

Oct. 31, 2013 Rise Set
Actual Time 7:42 AM EDT 6:23 PM EDT
Civil Twilight 7:16 AM EDT 6:50 PM EDT
Nautical Twilight 6:45 AM EDT 7:21 PM EDT
Astronomical Twilight 6:15 AM EDT 7:51 PM EDT
Moon 4:35 AM EDT (10/31) 4:37 PM EDT (10/31)
Length of Visible Light 11h 34m
Length of Day
10h 41m
Waning Crescent, 10% of the Moon is Illuminated
Oct 31
Waning Crescent
Nov 3
New
Nov 10
First Quarter
Nov 17
Full
Nov 25
Last Quarter

Hourly Weather History & Observations

Time (EDT) Temp. Dew Point Humidity Pressure Visibility Wind Dir Wind Speed Gust Speed Precip Events Conditions
12:15 AM 60.8 °F 58.5 °F 92% 30.21 in 10.0 mi Calm Calm - N/A   Overcast
12:35 AM 60.8 °F 58.6 °F 93% 30.20 in 10.0 mi Calm Calm - N/A   Overcast
12:55 AM 60.6 °F 58.5 °F 93% 30.20 in 10.0 mi Calm Calm - N/A   Overcast
1:15 AM 59.7 °F 57.9 °F 94% 30.20 in 10.0 mi Calm Calm - N/A   Overcast
1:35 AM 58.5 °F 57.0 °F 95% 30.19 in 7.0 mi Calm Calm - N/A   Overcast
1:55 AM 57.7 °F 56.5 °F 96% 30.19 in 4.0 mi Calm Calm - N/A   Mostly Cloudy
2:15 AM 56.7 °F 55.6 °F 96% 30.19 in 4.0 mi Calm Calm - N/A   Clear
2:35 AM 56.5 °F 55.8 °F 97% 30.19 in 4.0 mi Calm Calm - N/A   Clear
2:55 AM 55.6 °F 54.9 °F 97% 30.19 in 4.0 mi Calm Calm - N/A   Clear
3:15 AM 55.4 °F 54.7 °F 97% 30.18 in 1.5 mi Calm Calm - N/A   Mostly Cloudy
3:35 AM 56.5 °F 55.9 °F 98% 30.18 in 7.0 mi Calm Calm - N/A   Overcast
3:55 AM 56.3 °F 55.4 °F 97% 30.17 in 7.0 mi Calm Calm - N/A   Overcast
4:15 AM 56.1 °F 55.2 °F 97% 30.17 in 5.0 mi Calm Calm - N/A   Mostly Cloudy
4:35 AM 55.9 °F 54.9 °F 96% 30.16 in 5.0 mi Calm Calm - N/A   Scattered Clouds
4:55 AM 55.8 °F 54.9 °F 97% 30.16 in 7.0 mi Calm Calm - N/A   Clear
5:15 AM 56.5 °F 55.4 °F 96% 30.15 in 10.0 mi Calm Calm - N/A   Clear
5:35 AM 56.7 °F 54.7 °F 93% 30.15 in 10.0 mi Calm Calm - N/A   Clear
5:55 AM 55.8 °F 54.9 °F 97% 30.17 in 7.0 mi Calm Calm - N/A   Clear
6:15 AM 55.8 °F 54.7 °F 96% 30.17 in 7.0 mi Calm Calm - N/A   Clear
6:35 AM 56.3 °F 54.7 °F 94% 30.16 in 10.0 mi Calm Calm - N/A   Clear
6:55 AM 54.9 °F 54.0 °F 97% 30.16 in 5.0 mi Calm Calm - N/A   Clear
7:15 AM 54.3 °F 53.4 °F 97% 30.17 in 4.0 mi Calm Calm - N/A   Clear
7:35 AM 55.4 °F 54.5 °F 97% 30.15 in 7.0 mi Calm Calm - N/A   Clear
7:55 AM 54.9 °F 53.8 °F 96% 30.15 in 5.0 mi Calm Calm - N/A   Clear
8:15 AM 55.4 °F 54.1 °F 96% 30.16 in 5.0 mi Calm Calm - N/A   Clear
8:35 AM 56.5 °F 55.2 °F 96% 30.17 in 10.0 mi Calm Calm - N/A   Clear
8:55 AM 57.4 °F 55.6 °F 94% 30.17 in 10.0 mi Calm Calm - N/A   Clear
9:15 AM 59.2 °F 56.3 °F 90% 30.17 in 10.0 mi Calm Calm - N/A   Clear
9:35 AM 60.8 °F 57.0 °F 87% 30.17 in 10.0 mi Calm Calm - N/A   Clear
9:55 AM 61.0 °F 57.2 °F 87% 30.17 in 10.0 mi Calm Calm - N/A   Clear
10:15 AM 62.6 °F 57.6 °F 84% 30.16 in 10.0 mi SSW 3.5 mph - N/A   Clear
10:35 AM 63.3 °F 57.0 °F 80% 30.15 in 10.0 mi SW 3.5 mph - N/A   Clear
10:55 AM 64.4 °F 56.7 °F 76% 30.14 in 10.0 mi SSW 3.5 mph - N/A   Clear
11:15 AM 66.2 °F 57.2 °F 73% 30.13 in 10.0 mi SSW 4.6 mph - N/A   Clear
11:35 AM 66.6 °F 56.7 °F 70% 30.13 in 10.0 mi SSW 4.6 mph - N/A   Clear
11:55 AM 66.9 °F 56.5 °F 69% 30.12 in 10.0 mi SSW 5.8 mph - N/A   Clear
12:15 PM 67.3 °F 55.9 °F 67% 30.12 in 10.0 mi SSW 4.6 mph - N/A   Clear
12:35 PM 68.0 °F 56.1 °F 66% 30.11 in 10.0 mi SSW 3.5 mph - N/A   Clear
12:55 PM 68.4 °F 56.3 °F 65% 30.10 in 10.0 mi SSW 5.8 mph - N/A   Clear
1:15 PM 68.9 °F 55.8 °F 63% 30.08 in 10.0 mi SSW 6.9 mph - N/A   Clear
1:35 PM 69.4 °F 56.1 °F 62% 30.07 in 10.0 mi SSW 5.8 mph - N/A   Clear
1:55 PM 68.5 °F 55.6 °F 63% 30.07 in 10.0 mi SW 6.9 mph - N/A   Clear
2:15 PM 68.9 °F 56.1 °F 64% 30.05 in 10.0 mi SSW 3.5 mph - N/A   Clear
2:35 PM 69.8 °F 56.3 °F 62% 30.04 in 10.0 mi SW 6.9 mph - N/A   Clear
2:55 PM 69.8 °F 55.6 °F 61% 30.03 in 10.0 mi SSW 8.1 mph 19.6 mph N/A   Scattered Clouds
3:15 PM 69.3 °F 55.9 °F 62% 30.04 in 10.0 mi SW 6.9 mph - N/A   Scattered Clouds
3:35 PM 68.9 °F 55.8 °F 63% 30.03 in 10.0 mi SSW 4.6 mph - N/A   Scattered Clouds
3:55 PM 68.9 °F 55.4 °F 62% 30.03 in 10.0 mi SSW 8.1 mph 16.1 mph N/A   Mostly Cloudy
4:15 PM 68.9 °F 55.4 °F 62% 30.02 in 10.0 mi SSW 9.2 mph 17.3 mph N/A   Scattered Clouds
4:35 PM 68.2 °F 55.4 °F 64% 30.00 in 10.0 mi SSW 6.9 mph - N/A   Clear
4:55 PM 68.0 °F 55.4 °F 64% 30.00 in 10.0 mi SSW 6.9 mph - N/A   Clear
5:15 PM 67.6 °F 55.6 °F 65% 30.00 in 10.0 mi SSW 4.6 mph - N/A   Clear
5:35 PM 68.0 °F 55.4 °F 64% 29.98 in 10.0 mi SSW 4.6 mph - N/A   Scattered Clouds
5:55 PM 67.8 °F 55.0 °F 64% 29.98 in 10.0 mi SSW 4.6 mph - N/A   Mostly Cloudy
6:15 PM 67.1 °F 54.9 °F 65% 29.97 in 10.0 mi SSW 5.8 mph - N/A   Overcast
6:35 PM 66.9 °F 55.4 °F 66% 29.97 in 10.0 mi SSW 4.6 mph - N/A   Overcast
6:55 PM 66.4 °F 55.4 °F 68% 29.97 in 10.0 mi SSW 4.6 mph - N/A   Mostly Cloudy
7:15 PM 66.2 °F 55.4 °F 68% 29.97 in 10.0 mi South 3.5 mph - N/A   Scattered Clouds
7:35 PM 66.2 °F 55.8 °F 69% 29.97 in 10.0 mi South 3.5 mph - N/A   Clear
7:55 PM 65.7 °F 55.9 °F 71% 29.97 in 10.0 mi South 3.5 mph - N/A   Clear
8:15 PM 65.3 °F 56.1 °F 72% 29.97 in 10.0 mi South 4.6 mph - N/A   Mostly Cloudy
8:35 PM 65.5 °F 56.3 °F 72% 29.97 in 10.0 mi Calm Calm - N/A   Mostly Cloudy
8:55 PM 66.0 °F 56.8 °F 72% 29.96 in 10.0 mi SSW 3.5 mph - N/A   Mostly Cloudy
9:15 PM 66.2 °F 56.8 °F 72% 29.95 in 10.0 mi SSW 4.6 mph - N/A   Overcast
9:35 PM 64.9 °F 56.8 °F 75% 29.95 in 10.0 mi SSW 3.5 mph - N/A Rain Light Rain
9:55 PM 64.6 °F 57.2 °F 77% 29.94 in 10.0 mi South 4.6 mph - N/A   Overcast
10:15 PM 64.8 °F 56.7 °F 75% 29.93 in 10.0 mi South 3.5 mph - N/A   Mostly Cloudy
10:35 PM 64.9 °F 57.0 °F 75% 29.92 in 10.0 mi South 3.5 mph - N/A   Mostly Cloudy
10:55 PM 66.0 °F 58.3 °F 76% 29.92 in 10.0 mi South 6.9 mph - N/A   Overcast
11:15 PM 66.2 °F 58.6 °F 77% 29.90 in 10.0 mi SSW 6.9 mph - N/A   Scattered Clouds
11:35 PM 66.6 °F 59.4 °F 78% 29.88 in 10.0 mi SSW 5.8 mph - N/A   Scattered Clouds
11:55 PM 67.1 °F 60.1 °F 78% 29.88 in 10.0 mi South 5.8 mph - N/A   Mostly Cloudy